Home   Weather   Helsingborg   Past weeks

Flag for Sweden Past Weather in Helsingborg, Sweden — Yesterday and Last 2 Weeks

41 °F

Drizzle. Mostly cloudy.

Feels Like: 36 °F
Forecast: 43 / 49 °F
Wind: 8 mph from East

Location: Ljungbyhed

Current Time: Oct 23, 2016 at 1:50:49 AM

Latest Report: Oct 23, 2016 at 1:20 AM

Visibility: N/A

Pressure: 30.04 "Hg

Humidity: 93%

Dew Point: 39 °F

Location of HelsingborgLocation

Past Weather in Helsingborg — Graph


Helsingborg Temperature Yesterday

Maximum temperature yesterday: 45 °F (at 12:20 AM)
Minimum temperature yesterday: 39 °F (at 7:50 AM)
Average temperature yesterday: 43 °F

High & Low Weather Summary for the Past Weeks

High55 °F (Oct 20, 3:20 PM)100% (Oct 9, 7:50 AM)30.42 "Hg (Oct 9, 7:50 AM)
Low39 °F (Oct 22, 7:50 AM)66% (Oct 15, 3:50 PM)29.98 "Hg (Oct 19, 5:20 AM)
Average46 °F86%30.20 "Hg
* Reported Oct 8 12:20 AM — Oct 23 12:20 AM, Helsingborg, Weather by CustomWeather, © 2016

Note: Actual official high and low records may vary slightly from our data, if they occured in-between our weather recording intervals... More about our weather records


Helsingborg Weather History for the Previous 24 Hours

Scroll right to see more
Time TempWeatherWind HumidityBarometerVisibility
12:20 AM
Sun, Oct 23
41 °FFog.9 mph100%30.01 "Hg5 mi
11:50 PM
Sat, Oct 22
43 °FFog.12 mph93%30.01 "Hg6 mi
11:20 PM43 °FFog.12 mph93%30.01 "Hg6 mi
10:50 PM43 °FDrizzle. Low clouds.9 mph100%30.01 "HgN/A
10:20 PM45 °FLow clouds.12 mph93%30.01 "HgN/A
9:50 PM45 °FLight rain. Low clouds.13 mph93%30.01 "HgN/A
9:20 PM45 °FDrizzle. Low clouds.14 mph93%30.01 "HgN/A
8:50 PM45 °FLow clouds.10 mph93%30.01 "HgN/A
8:20 PM45 °FMostly cloudy.12 mph93%29.98 "HgN/A
7:50 PM45 °FMostly cloudy.12 mph93%29.98 "HgN/A
7:20 PM45 °FMostly cloudy.12 mph93%29.98 "HgN/A
6:50 PM45 °FLow clouds.13 mph93%29.98 "HgN/A
6:20 PM45 °FDrizzle. Mostly cloudy.12 mph93%29.98 "HgN/A
5:50 PM45 °FDrizzle. Low clouds.10 mph93%29.98 "HgN/A
5:20 PM45 °FDrizzle. Mostly cloudy.10 mph93%29.98 "HgN/A
4:50 PM43 °FDrizzle. Low clouds.10 mph100%29.98 "HgN/A
4:20 PM43 °FFog.10 mph100%29.98 "Hg6 mi
3:50 PM43 °FDrizzle. Low clouds.9 mph93%29.98 "HgN/A
3:20 PM43 °FLight rain. Low clouds.9 mph93%29.98 "Hg6 mi
2:50 PM43 °FLight rain. Mostly cloudy.7 mph87%29.98 "HgN/A
2:20 PM41 °FMostly cloudy.7 mph93%29.98 "HgN/A
1:50 PM41 °FLow clouds.9 mph93%29.98 "HgN/A
1:20 PM41 °FLow clouds.10 mph93%29.98 "HgN/A
12:50 PM41 °FLow clouds.13 mph87%30.01 "HgN/A
12:20 PM39 °FLow clouds.10 mph93%30.01 "HgN/A
11:50 AM39 °FLow clouds.9 mph93%30.01 "HgN/A
11:20 AM39 °FLow clouds.12 mph93%30.01 "HgN/A
10:50 AM39 °FDrizzle. Low clouds.10 mph93%30.01 "HgN/A
10:20 AM39 °FDrizzle. Low clouds.9 mph93%30.01 "HgN/A
9:50 AM39 °FLight rain. Low clouds.12 mph93%30.01 "HgN/A
9:20 AM39 °FLight rain. Broken clouds.8 mph93%30.01 "HgN/A
8:50 AM39 °FLow clouds.10 mph93%30.01 "HgN/A
8:20 AM39 °FDrizzle. Broken clouds.8 mph93%30.01 "HgN/A
7:50 AM39 °FLight rain. Partly cloudy.9 mph93%30.01 "HgN/A
7:20 AM41 °FPartly cloudy.12 mph93%30.01 "HgN/A
6:50 AM41 °FPartly cloudy.8 mph93%30.01 "HgN/A
6:20 AM43 °FPartly cloudy.9 mph87%30.04 "HgN/A
5:50 AM43 °FPartly cloudy.12 mph93%30.04 "HgN/A
5:20 AM43 °FOvercast.9 mph93%30.04 "HgN/A
4:50 AM43 °FOvercast.7 mph93%30.04 "HgN/A
4:20 AM43 °FOvercast.9 mph93%30.04 "HgN/A
3:50 AM45 °FOvercast.9 mph87%30.04 "HgN/A
3:20 AM45 °FOvercast.10 mph87%30.07 "HgN/A
2:50 AM45 °FOvercast.10 mph87%30.07 "HgN/A
2:20 AM45 °FOvercast.10 mph87%30.07 "HgN/A
1:50 AM45 °FOvercast.9 mph87%30.07 "HgN/A
1:20 AM45 °FOvercast.12 mph87%30.07 "HgN/A
Weather by CustomWeather, © 2016

See weather overviewHow to use our weather pages